Monument Pass, CO

11:34 PM MDT on May 26, 2018 (GMT -0600)
Monument Pass

Weather History for KMNH - December, 2012

Change the Weather History Date:

Tuesday, December 18, 2012

  Actual Average Record
Temperature  
Mean Temperature 30 °F -  
Max Temperature 41 °F - 59 °F (2011)
Min Temperature 19 °F - 0 °F (2016)
Degree Days  
Heating Degree Days 35    
Month to date heating degree days  
Cooling Degree Days 0    
Month to date cooling degree days  
Moisture  
Dew Point 16 °F    
Average Humidity 60    
Maximum Humidity 100    
Minimum Humidity 39    
Precipitation  
Precipitation 0.00 in - 0.00 in (2018)
Snow  
Snow 0.00 in - - ()
Snow Depth -    
Sea Level Pressure  
Sea Level Pressure 29.67 in    
Wind  
Wind Speed 12 mph (South)    
Max Wind Speed 23 mph    
Max Gust Speed 31 mph    
Visibility 10 miles    
Events      
T = Trace of Precipitation, MM = Missing Value Source: NWS Daily Summary

Daily Weather History Graph

Daily Weather History Graph

Search for Another Location

Airport or City:

Astronomy

Dec. 18, 2012 Rise Set
Actual Time 7:13 AM MST 4:37 PM MST
Civil Twilight 6:42 AM MST 5:07 PM MST
Nautical Twilight 6:09 AM MST 5:41 PM MST
Astronomical Twilight 5:36 AM MST 6:14 PM MST
Moon 10:56 AM MST (12/18) 11:04 PM MST (12/18)
Length of Visible Light 10h 24m
Length of Day
9h 24m
Waxing Crescent, 35% of the Moon is Illuminated
Dec 18
Waxing Crescent
Dec 19
First Quarter
Dec 28
Full
Jan 4
Last Quarter
Jan 11
New

Hourly Weather History & Observations

Time (MST) Temp. Windchill Dew Point Humidity Pressure Visibility Wind Dir Wind Speed Gust Speed Precip Events Conditions
12:14 AM 30.2 °F 19.3 °F 14.0 °F 51% 29.67 in 10.0 mi SW 15.0 mph - N/A   Clear
12:34 AM 30.2 °F 19.3 °F 14.0 °F 51% 29.66 in 10.0 mi SW 15.0 mph - N/A   Clear
12:54 AM 30.2 °F 18.5 °F 14.0 °F 51% 29.66 in 10.0 mi SW 17.3 mph - N/A   Clear
1:14 AM 30.2 °F 19.3 °F 14.0 °F 51% 29.67 in 10.0 mi SW 15.0 mph - N/A   Clear
1:34 AM 30.2 °F 19.8 °F 14.0 °F 51% 29.68 in 10.0 mi SW 13.8 mph - N/A   Clear
1:54 AM 30.2 °F 21.3 °F 14.0 °F 51% 29.68 in 10.0 mi SW 10.4 mph - N/A   Clear
2:14 AM 30.2 °F 19.3 °F 14.0 °F 51% 29.68 in 10.0 mi SW 15.0 mph - N/A   Clear
2:34 AM 30.2 °F 19.3 °F 14.0 °F 51% 29.68 in 10.0 mi SW 15.0 mph - N/A   Clear
2:54 AM 30.2 °F 20.8 °F 14.0 °F 51% 29.68 in 10.0 mi SW 11.5 mph 17.3 mph N/A   Clear
3:14 AM 30.2 °F 21.9 °F 14.0 °F 51% 29.68 in 10.0 mi SW 9.2 mph - N/A   Clear
3:34 AM 30.2 °F 20.2 °F 14.0 °F 51% 29.68 in 10.0 mi SW 12.7 mph - N/A   Clear
3:54 AM 30.2 °F 21.9 °F 14.0 °F 51% 29.68 in 10.0 mi SW 9.2 mph - N/A   Clear
4:14 AM 26.6 °F - 14.0 °F 59% 29.68 in 10.0 mi Calm Calm - N/A   Clear
4:34 AM 26.6 °F 20.0 °F 14.0 °F 59% 29.69 in 10.0 mi SSW 5.8 mph - N/A   Clear
4:53 AM 26.6 °F 18.2 °F 14.0 °F 59% 29.70 in 10.0 mi WNW 8.1 mph - N/A   Clear
5:14 AM 23.0 °F 14.7 °F 14.0 °F 68% 29.70 in 10.0 mi NW 6.9 mph - N/A   Clear
5:34 AM 23.0 °F 17.0 °F 14.0 °F 68% 29.71 in 10.0 mi WSW 4.6 mph - N/A   Clear
5:54 AM 23.0 °F - 14.0 °F 68% 29.72 in 10.0 mi Calm Calm - N/A   Clear
6:14 AM 23.0 °F 17.0 °F 12.2 °F 63% 29.72 in 10.0 mi ENE 4.6 mph - N/A   Clear
6:34 AM 19.4 °F 11.5 °F 12.2 °F 74% 29.73 in 10.0 mi SSE 5.8 mph - N/A   Clear
6:54 AM 19.4 °F 10.4 °F 12.2 °F 74% 29.73 in 10.0 mi SSE 6.9 mph - N/A   Clear
7:13 AM 19.4 °F 11.5 °F 12.2 °F 74% 29.74 in 10.0 mi SSE 5.8 mph - N/A   Clear
7:34 AM 21.2 °F 16.4 °F 14.0 °F 74% 29.74 in 10.0 mi SE 3.5 mph - N/A   Clear
7:54 AM 21.2 °F 12.6 °F 14.0 °F 74% 29.73 in 10.0 mi South 6.9 mph - N/A   Clear
8:14 AM 24.8 °F 20.5 °F 17.6 °F 74% 29.73 in 10.0 mi SSE 3.5 mph - N/A   Clear
8:34 AM 28.4 °F 23.3 °F 19.4 °F 69% 29.73 in 10.0 mi SSE 4.6 mph - N/A   Clear
8:54 AM 30.2 °F 23.4 °F 19.4 °F 64% 29.73 in 10.0 mi SE 6.9 mph - N/A   Clear
9:14 AM 30.2 °F 24.3 °F 19.4 °F 64% 29.74 in 10.0 mi East 5.8 mph - N/A   Clear
9:34 AM 32.0 °F 26.4 °F 19.4 °F 60% 29.74 in 10.0 mi ESE 5.8 mph - N/A   Clear
9:54 AM 32.0 °F 26.4 °F 19.4 °F 60% 29.75 in 10.0 mi East 5.8 mph - N/A   Clear
10:14 AM 32.0 °F 27.5 °F 19.4 °F 60% 29.75 in 10.0 mi East 4.6 mph - N/A   Clear
10:34 AM 33.8 °F 28.6 °F 19.4 °F 56% 29.74 in 10.0 mi East 5.8 mph - N/A   Clear
10:54 AM 35.6 °F 29.9 °F 19.4 °F 52% 29.74 in 10.0 mi East 6.9 mph - N/A   Clear
11:13 AM 35.6 °F 27.5 °F 19.4 °F 52% 29.73 in 10.0 mi East 11.5 mph - N/A   Clear
11:34 AM 37.4 °F 29.8 °F 19.4 °F 48% 29.71 in 10.0 mi ESE 11.5 mph - N/A   Clear
11:54 AM 39.2 °F 31.2 °F 17.6 °F 42% 29.69 in 10.0 mi SE 13.8 mph - N/A   Clear
12:13 PM 41.0 °F 34.7 °F 17.6 °F 39% 29.68 in 10.0 mi South 10.4 mph - N/A   Clear
12:33 PM 39.2 °F 30.2 °F 17.6 °F 42% 29.66 in 10.0 mi SSE 17.3 mph 23.0 mph N/A   Clear
12:54 PM 39.2 °F 29.3 °F 17.6 °F 42% 29.67 in 10.0 mi SSE 20.7 mph - N/A   Clear
1:14 PM 37.4 °F 27.2 °F 17.6 °F 45% 29.66 in 10.0 mi SSE 19.6 mph - N/A   Clear
1:34 PM 37.4 °F 26.6 °F 17.6 °F 45% 29.65 in 10.0 mi SSE 21.9 mph 25.3 mph N/A   Clear
1:54 PM 35.6 °F 24.5 °F 17.6 °F 48% 29.65 in 10.0 mi SSE 20.7 mph 26.5 mph N/A   Clear
2:14 PM 37.4 °F 27.5 °F 17.6 °F 45% 29.64 in 10.0 mi SSE 18.4 mph 21.9 mph N/A   Scattered Clouds
2:34 PM 35.6 °F 24.8 °F 15.8 °F 44% 29.64 in 10.0 mi SSE 19.6 mph 27.6 mph N/A   Scattered Clouds
2:54 PM 35.6 °F 24.0 °F 15.8 °F 44% 29.64 in 10.0 mi SSE 23.0 mph 31.1 mph N/A   Scattered Clouds
3:14 PM 33.8 °F 22.8 °F 15.8 °F 48% 29.64 in 10.0 mi SSE 18.4 mph 31.1 mph N/A   Clear
3:34 PM 32.0 °F 19.5 °F 15.8 °F 51% 29.63 in 10.0 mi South 21.9 mph 28.8 mph N/A   Clear
3:54 PM 32.0 °F 19.2 °F 15.8 °F 51% 29.63 in 10.0 mi South 23.0 mph 28.8 mph N/A   Clear
4:13 PM 32.0 °F 20.8 °F 15.8 °F 51% 29.63 in 10.0 mi South 17.3 mph 27.6 mph N/A   Clear
4:34 PM 32.0 °F 20.5 °F 15.8 °F 51% 29.63 in 10.0 mi South 18.4 mph - N/A   Clear
4:54 PM 30.2 °F 18.5 °F 15.8 °F 55% 29.63 in 10.0 mi South 17.3 mph - N/A   Clear
5:14 PM 30.2 °F 18.9 °F 15.8 °F 55% 29.64 in 10.0 mi South 16.1 mph 21.9 mph N/A   Clear
5:34 PM 30.2 °F 18.1 °F 17.6 °F 60% 29.63 in 10.0 mi South 18.4 mph - N/A   Clear
5:54 PM 30.2 °F 18.5 °F 15.8 °F 55% 29.64 in 10.0 mi South 17.3 mph - N/A   Clear
6:14 PM 30.2 °F 19.8 °F 15.8 °F 55% 29.63 in 10.0 mi South 13.8 mph - N/A   Clear
6:34 PM 30.2 °F 20.2 °F 14.0 °F 51% 29.63 in 10.0 mi SSE 12.7 mph - N/A   Clear
6:54 PM 30.2 °F 19.3 °F 14.0 °F 51% 29.61 in 10.0 mi SSE 15.0 mph - N/A   Clear
7:14 PM 28.4 °F 17.5 °F 14.0 °F 55% 29.61 in 10.0 mi SSE 13.8 mph - N/A   Clear
7:34 PM 28.4 °F 18.0 °F 14.0 °F 55% 29.61 in 10.0 mi SSE 12.7 mph 19.6 mph N/A   Clear
7:53 PM 28.4 °F 16.6 °F 14.0 °F 55% 29.61 in 10.0 mi SSE 16.1 mph 20.7 mph N/A   Clear
8:13 PM 28.4 °F 19.1 °F 14.0 °F 55% 29.62 in 10.0 mi South 10.4 mph - N/A   Clear
8:34 PM 26.6 °F 16.8 °F 12.2 °F 55% 29.63 in 10.0 mi South 10.4 mph - N/A   Clear
8:54 PM 26.6 °F 21.2 °F 12.2 °F 55% 29.63 in 10.0 mi WSW 4.6 mph - N/A   Clear
9:14 PM 24.8 °F 15.3 °F 12.2 °F 59% 29.63 in 10.0 mi NW 9.2 mph - N/A   Clear
9:34 PM 19.4 °F 7.2 °F 15.8 °F 86% 29.63 in 10.0 mi WNW 11.5 mph - N/A   Clear
9:53 PM 19.4 °F 6.6 °F 17.6 °F 93% 29.62 in 10.0 mi WNW 12.7 mph - N/A   Scattered Clouds
10:14 PM 19.4 °F 5.5 °F 19.4 °F 100% 29.63 in 10.0 mi NW 15.0 mph - N/A   Mostly Cloudy
10:34 PM 19.4 °F 6.0 °F 19.4 °F 100% 29.64 in 10.0 mi NW 13.8 mph 19.6 mph N/A   Overcast
10:54 PM 21.2 °F 8.3 °F 19.4 °F 93% 29.63 in 10.0 mi NW 13.8 mph - N/A   Overcast
11:14 PM 19.4 °F 6.0 °F 19.4 °F 100% 29.63 in 10.0 mi NW 13.8 mph - N/A   Overcast
11:34 PM 19.4 °F 7.9 °F 19.4 °F 100% 29.61 in 10.0 mi NW 10.4 mph - N/A   Overcast
11:54 PM 19.4 °F 6.6 °F 19.4 °F 100% 29.59 in 10.0 mi NNW 12.7 mph - N/A   Overcast